User: anonymous   Login
Location: Castillon
(43.0896°N, 0.2156°E)
Time: 06:08:17
(UTC+00:00)
Language:

BREEZE-M DEB (TANK) - Orbit

View from above orbital plane
View from above orbital plane
View from above satellite
View from above satellite

Ground track
Ground track

The orbit data is extracted from the following two-line orbital elements,

1 37220U 10061C   21259.86418094  .00000466  00000-0  21605-3 0  9994
2 37220  49.3434 139.0954 5465740 152.8498 251.4670  4.80688675188893
Epoch (UTC): 16 September 2021 20:44:25
Eccentricity: 0.5465740
inclination: 49.3434°
perigee height: 346 km
apogee height: 16558 km
right ascension of ascending node: 139.0954°
argument of perigee: 152.8498°
revolutions per day: 4.80688675
mean anomaly at epoch: 251.4670°
orbit number at epoch: 18889

The dashed part of the orbit path shows where the satellite is in the earth's shadow,  

DLR